Location: Unspecified
(0.0000°N, 0.0000°E)
Time: 09:28:37
(UTC+00:00)

Orbcomm D8 (FM36) - Pass Details

Date: 10 June 2023
Orbit: 773 x 779 km, 45.0° (Epoch: 28 September)

Event Time Altitude Azimuth Distance (km) Brightness Sun altitude
Exits shadow 04:28:16 22° 187° (S) 1,662 9.9 -20.9°
Maximum altitude 04:31:14 39° 133° (SE) 1,161 9.6 -20.2°
Drops below altitude 10° 04:36:17 10° 65° (ENE) 2,323 12.3 -19.1°
Sets 04:38:53 0° 57° (ENE) 3,249 13.4 -18.5°
